Retour au catalogue

STARLINK-32746

ActifCommunicationsVLEO
NORAD 62745·PAYLOAD·🇺🇸 United States

Lancé Jan 21, 2025 depuis Cape Canaveral Space Force Station

Loading…

Prochains Passages (prochaines 24 heures)

TLE

FraisSource: CelesTrak SupGP

Époque: Sep 15, 2026, 03:42 UTC

1 62745C 25014L   26258.15465278  .00033291  00000+0  12059-2 0  2581
2 62745  43.0022 163.9643 0001494 276.5788 260.5174 15.27559372    12

Suivez STARLINK-32746 en temps réel avec AllMySat

Download on the App Store